| time (UTC) | temp F | wind direction | speed MPH | gust MPH | rain 1hr in | rain 24hr in | rain mn in | humidity % | barometer mb |
| 20260507082707 | 55 | 177 | 1.0 | 4.0 | 0.00 | 0.00 | 0.00 | 78 | 1016.2 |
| 20260507081807 | 54 | 194 | 0.0 | 2.0 | 0.00 | 0.00 | 0.00 | 80 | 1016.1 |
| 20260507080928 | 53 | 116 | 1.0 | 2.0 | 0.00 | 0.00 | 0.00 | 85 | 1016.1 |
| 20260507080007 | 51 | 61 | 1.0 | 2.0 | 0.00 | 0.00 | 0.00 | 88 | 1016.2 |
| 20260507075407 | 51 | 135 | 0.0 | 2.0 | 0.00 | 0.00 | 0.00 | 90 | 1016.1 |
| 20260507074507 | 50 | 135 | 1.0 | 3.0 | 0.00 | 0.00 | 0.00 | 91 | 1016.1 |
| 20260507073606 | 49 | 148 | 1.0 | 3.0 | 0.00 | 0.00 | 0.00 | 92 | 1016.1 |
| 20260507072706 | 47 | 138 | 0.0 | 2.0 | 0.00 | 0.00 | 0.00 | 94 | 1016.1 |
| 20260507071828 | 47 | 58 | 1.0 | 2.0 | 0.00 | 0.00 | 0.00 | 94 | 1016.1 |
| 20260507070907 | 46 | 45 | 0.0 | 2.0 | 0.00 | 0.00 | 0.00 | 94 | 1016.1 |
| 20260507070010 | 46 | 135 | 0.0 | 2.0 | 0.00 | 0.00 | 0.00 | 94 | 1016.1 |
| 20260507065428 | 45 | 60 | 0.0 | 2.0 | 0.00 | 0.00 | 0.00 | 94 | 1016.1 |
| 20260507064507 | 44 | 45 | 0.0 | 2.0 | 0.00 | 0.00 | 0.00 | 94 | 1016.0 |
| 20260507063607 | 44 | 0 | 0.0 | 0.0 | 0.00 | 0.00 | 0.00 | 94 | 1016.1 |
| 20260507062707 | 43 | 0 | 0.0 | 0.0 | 0.00 | 0.00 | 0.00 | 94 | 1016.0 |
| 20260507061828 | 43 | 0 | 0.0 | 0.0 | 0.00 | 0.00 | 0.00 | 95 | 1016.1 |
| 20260507060907 | 42 | 0 | 0.0 | 0.0 | 0.00 | 0.00 | 0.00 | 94 | 1016.0 |
| 20260507060007 | 42 | 0 | 0.0 | 0.0 | 0.00 | 0.00 | 0.00 | 94 | 1016.0 |
| 20260507055406 | 41 | 0 | 0.0 | 0.0 | 0.00 | 0.00 | 0.00 | 93 | 1015.9 |
| 20260507054506 | 40 | 0 | 0.0 | 0.0 | 0.00 | 0.00 | 0.00 | 94 | 1015.9 |
| 20260507053607 | 40 | 0 | 0.0 | 0.0 | 0.00 | 0.00 | 0.00 | 93 | 1015.9 |
| 20260507052707 | 38 | 0 | 0.0 | 0.0 | 0.00 | 0.00 | 0.00 | 93 | 1015.8 |
| 20260507051806 | 37 | 0 | 0.0 | 0.0 | 0.00 | 0.00 | 0.00 | 89 | 1015.7 |
| 20260507050907 | 36 | 0 | 0.0 | 0.0 | 0.00 | 0.00 | 0.00 | 88 | 1015.7 |
| 20260507050006 | 36 | 0 | 0.0 | 0.0 | 0.00 | 0.00 | 0.00 | 88 | 1015.6 |
| 20260507045406 | 36 | 0 | 0.0 | 0.0 | 0.00 | 0.00 | 0.00 | 88 | 1015.6 |
| 20260507044507 | 36 | 0 | 0.0 | 0.0 | 0.00 | 0.00 | 0.00 | 88 | 1015.5 |
| 20260507043627 | 36 | 0 | 0.0 | 0.0 | 0.00 | 0.00 | 0.00 | 88 | 1015.5 |
| 20260507042728 | 36 | 0 | 0.0 | 0.0 | 0.00 | 0.00 | 0.00 | 88 | 1015.4 |
| 20260507041806 | 36 | 0 | 0.0 | 0.0 | 0.00 | 0.00 | 0.00 | 88 | 1015.5 |
| 20260507040928 | 37 | 0 | 0.0 | 0.0 | 0.00 | 0.00 | 0.00 | 88 | 1015.6 |
| 20260507040028 | 37 | 0 | 0.0 | 0.0 | 0.00 | 0.00 | 0.00 | 87 | 1015.5 |
| 20260507035407 | 37 | 0 | 0.0 | 0.0 | 0.00 | 0.00 | 0.00 | 87 | 1015.5 |
| 20260507034507 | 37 | 0 | 0.0 | 0.0 | 0.00 | 0.00 | 0.00 | 87 | 1015.5 |
| 20260507033607 | 37 | 0 | 0.0 | 0.0 | 0.00 | 0.00 | 0.00 | 87 | 1015.5 |
| 20260507032706 | 38 | 0 | 0.0 | 0.0 | 0.00 | 0.00 | 0.00 | 91 | 1015.4 |
| 20260507031807 | 38 | 0 | 0.0 | 0.0 | 0.00 | 0.00 | 0.00 | 91 | 1015.6 |
| 20260507030906 | 38 | 0 | 0.0 | 0.0 | 0.00 | 0.00 | 0.00 | 91 | 1015.5 |
| 20260507030006 | 38 | 0 | 0.0 | 0.0 | 0.00 | 0.00 | 0.00 | 91 | 1015.5 |
| 20260507025406 | 38 | 0 | 0.0 | 0.0 | 0.00 | 0.00 | 0.00 | 91 | 1015.5 |
| 20260507024507 | 39 | 0 | 0.0 | 0.0 | 0.00 | 0.00 | 0.00 | 91 | 1015.5 |
| 20260507023606 | 39 | 0 | 0.0 | 0.0 | 0.00 | 0.00 | 0.00 | 91 | 1015.5 |
| 20260507022706 | 40 | 0 | 0.0 | 0.0 | 0.00 | 0.00 | 0.00 | 90 | 1015.5 |
| 20260507021806 | 40 | 0 | 0.0 | 0.0 | 0.00 | 0.00 | 0.00 | 90 | 1015.5 |
| 20260507020906 | 40 | 0 | 0.0 | 0.0 | 0.00 | 0.00 | 0.00 | 90 | 1015.4 |
| 20260507020007 | 40 | 180 | 0.0 | 1.0 | 0.00 | 0.00 | 0.00 | 89 | 1015.4 |
| 20260507015407 | 40 | 180 | 0.0 | 1.0 | 0.00 | 0.00 | 0.00 | 89 | 1015.3 |
| 20260507014528 | 40 | 0 | 0.0 | 0.0 | 0.00 | 0.00 | 0.00 | 88 | 1015.3 |
| 20260507013606 | 40 | 0 | 0.0 | 0.0 | 0.00 | 0.00 | 0.00 | 88 | 1015.4 |
| 20260507012707 | 40 | 0 | 0.0 | 0.0 | 0.00 | 0.00 | 0.00 | 87 | 1015.4 |
| 20260507011828 | 41 | 0 | 0.0 | 0.0 | 0.00 | 0.00 | 0.00 | 87 | 1015.4 |
| 20260507010906 | 41 | 0 | 0.0 | 0.0 | 0.00 | 0.00 | 0.00 | 86 | 1015.4 |
| 20260507010006 | 41 | 0 | 0.0 | 0.0 | 0.00 | 0.00 | 0.00 | 85 | 1015.4 |
| 20260507005406 | 41 | 0 | 0.0 | 0.0 | 0.00 | 0.00 | 0.00 | 84 | 1015.3 |
| 20260507004528 | 42 | 0 | 0.0 | 0.0 | 0.00 | 0.00 | 0.00 | 84 | 1015.3 |
| 20260507003606 | 42 | 0 | 0.0 | 0.0 | 0.00 | 0.00 | 0.00 | 84 | 1015.3 |
| 20260507002706 | 42 | 0 | 0.0 | 0.0 | 0.00 | 0.00 | 0.00 | 84 | 1015.5 |
| 20260507001806 | 43 | 0 | 0.0 | 0.0 | 0.00 | 0.00 | 0.00 | 83 | 1015.5 |
| 20260507000906 | 44 | 0 | 0.0 | 0.0 | 0.00 | 0.00 | 0.00 | 83 | 1015.4 |
| 20260507000006 | 44 | 0 | 0.0 | 0.0 | 0.00 | 0.00 | 0.00 | 83 | 1015.5 |
| 20260506235406 | 44 | 0 | 0.0 | 0.0 | 0.00 | 0.00 | 0.00 | 83 | 1015.5 |
| 20260506234506 | 44 | 0 | 0.0 | 0.0 | 0.00 | 0.00 | 0.00 | 83 | 1015.4 |
| 20260506233627 | 45 | 360 | 0.0 | 2.0 | 0.00 | 0.00 | 0.00 | 81 | 1015.3 |
| 20260506232707 | 45 | 0 | 0.0 | 0.0 | 0.00 | 0.00 | 0.00 | 81 | 1015.3 |
| 20260506231806 | 46 | 360 | 0.0 | 1.0 | 0.00 | 0.00 | 0.00 | 80 | 1015.3 |
| 20260506230906 | 46 | 315 | 0.0 | 1.0 | 0.00 | 0.00 | 0.00 | 80 | 1015.2 |
| 20260506230007 | 46 | 0 | 0.0 | 0.0 | 0.00 | 0.00 | 0.00 | 79 | 1015.3 |
| 20260506225406 | 47 | 0 | 0.0 | 0.0 | 0.00 | 0.00 | 0.00 | 78 | 1015.2 |
| 20260506224506 | 47 | 0 | 0.0 | 0.0 | 0.00 | 0.00 | 0.00 | 77 | 1015.3 |
| 20260506223606 | 47 | 0 | 0.0 | 0.0 | 0.00 | 0.00 | 0.00 | 77 | 1015.2 |
| 20260506222706 | 47 | 0 | 0.0 | 0.0 | 0.00 | 0.00 | 0.00 | 76 | 1015.1 |
| 20260506221806 | 48 | 0 | 0.0 | 0.0 | 0.00 | 0.00 | 0.00 | 75 | 1015.2 |
| 20260506220906 | 48 | 0 | 0.0 | 0.0 | 0.00 | 0.00 | 0.00 | 75 | 1015.1 |
| 20260506220006 | 48 | 53 | 2.0 | 4.0 | 0.00 | 0.00 | 0.00 | 74 | 1015.0 |
| 20260506215406 | 49 | 45 | 1.0 | 4.0 | 0.00 | 0.00 | 0.00 | 72 | 1015.0 |
| 20260506214506 | 49 | 1 | 1.0 | 2.0 | 0.00 | 0.00 | 0.00 | 72 | 1015.1 |
| 20260506213606 | 50 | 12 | 2.0 | 4.0 | 0.00 | 0.00 | 0.00 | 71 | 1015.0 |
| 20260506212706 | 50 | 36 | 4.0 | 4.0 | 0.00 | 0.00 | 0.00 | 70 | 1015.0 |
| 20260506211806 | 51 | 47 | 3.0 | 4.0 | 0.00 | 0.00 | 0.00 | 68 | 1015.0 |
| 20260506210906 | 51 | 37 | 3.0 | 4.0 | 0.00 | 0.00 | 0.00 | 66 | 1014.9 |
| 20260506210006 | 51 | 30 | 3.0 | 4.0 | 0.00 | 0.00 | 0.00 | 64 | 1014.8 |
| 20260506205406 | 52 | 46 | 3.0 | 4.0 | 0.00 | 0.00 | 0.00 | 63 | 1014.8 |
| 20260506204506 | 52 | 71 | 2.0 | 4.0 | 0.00 | 0.00 | 0.00 | 60 | 1014.8 |
| 20260506203627 | 52 | 53 | 2.0 | 4.0 | 0.00 | 0.00 | 0.00 | 59 | 1014.8 |
| 20260506202706 | 52 | 73 | 1.0 | 4.0 | 0.00 | 0.00 | 0.00 | 59 | 1014.7 |
| 20260506201806 | 52 | 36 | 3.0 | 4.0 | 0.00 | 0.00 | 0.00 | 59 | 1014.6 |
| 20260506200906 | 53 | 33 | 3.0 | 4.0 | 0.00 | 0.00 | 0.00 | 58 | 1014.6 |
| 20260506200006 | 53 | 41 | 2.0 | 2.0 | 0.00 | 0.00 | 0.00 | 57 | 1014.5 |
| 20260506195406 | 53 | 42 | 2.0 | 3.0 | 0.00 | 0.00 | 0.00 | 57 | 1014.4 |
| 20260506194506 | 53 | 35 | 3.0 | 5.0 | 0.00 | 0.00 | 0.00 | 56 | 1014.3 |
| 20260506193606 | 53 | 35 | 2.0 | 3.0 | 0.00 | 0.00 | 0.00 | 56 | 1014.2 |
| 20260506192727 | 53 | 34 | 3.0 | 3.0 | 0.00 | 0.00 | 0.00 | 56 | 1014.0 |
| 20260506191827 | 54 | 33 | 2.0 | 3.0 | 0.00 | 0.00 | 0.00 | 55 | 1014.1 |
| 20260506190906 | 54 | 24 | 3.0 | 5.0 | 0.00 | 0.00 | 0.00 | 54 | 1014.0 |
| 20260506190007 | 54 | 9 | 4.0 | 5.0 | 0.00 | 0.00 | 0.00 | 54 | 1014.0 |
| 20260506185406 | 54 | 10 | 4.0 | 5.0 | 0.00 | 0.00 | 0.00 | 54 | 1013.9 |
| 20260506184506 | 54 | 17 | 3.0 | 4.0 | 0.00 | 0.00 | 0.00 | 53 | 1014.0 |
| 20260506183606 | 55 | 40 | 3.0 | 4.0 | 0.00 | 0.00 | 0.00 | 53 | 1013.8 |
| 20260506182706 | 55 | 33 | 3.0 | 4.0 | 0.00 | 0.00 | 0.00 | 53 | 1013.8 |
| 20260506181806 | 55 | 33 | 3.0 | 4.0 | 0.00 | 0.00 | 0.00 | 53 | 1013.7 |
| 20260506180906 | 55 | 37 | 3.0 | 4.0 | 0.00 | 0.00 | 0.00 | 53 | 1013.5 |
| 20260506180027 | 55 | 36 | 3.0 | 5.0 | 0.00 | 0.00 | 0.00 | 52 | 1013.5 |
| 20260506175406 | 55 | 28 | 3.0 | 5.0 | 0.00 | 0.00 | 0.00 | 53 | 1013.4 |
| 20260506174506 | 55 | 52 | 3.0 | 5.0 | 0.00 | 0.00 | 0.00 | 52 | 1013.3 |
| 20260506173606 | 55 | 19 | 3.0 | 5.0 | 0.00 | 0.00 | 0.00 | 51 | 1013.3 |
| 20260506172706 | 55 | 22 | 4.0 | 7.0 | 0.00 | 0.00 | 0.00 | 52 | 1013.3 |
| 20260506171827 | 56 | 11 | 5.0 | 8.0 | 0.00 | 0.00 | 0.00 | 52 | 1013.3 |
| 20260506170906 | 56 | 63 | 4.0 | 8.0 | 0.00 | 0.00 | 0.00 | 53 | 1013.2 |
| 20260506170006 | 56 | 18 | 5.0 | 7.0 | 0.00 | 0.00 | 0.00 | 52 | 1013.2 |
| 20260506165406 | 56 | 352 | 5.0 | 7.0 | 0.00 | 0.00 | 0.00 | 53 | 1013.2 |
| 20260506164506 | 56 | 45 | 5.0 | 7.0 | 0.00 | 0.00 | 0.00 | 52 | 1013.2 |
| 20260506163606 | 56 | 353 | 5.0 | 7.0 | 0.00 | 0.00 | 0.00 | 52 | 1013.1 |
| 20260506162727 | 57 | 12 | 6.0 | 9.0 | 0.00 | 0.00 | 0.00 | 52 | 1013.2 |
| 20260506161806 | 57 | 17 | 5.0 | 6.0 | 0.00 | 0.00 | 0.00 | 51 | 1013.2 |
| 20260506160906 | 58 | 38 | 6.0 | 8.0 | 0.00 | 0.00 | 0.00 | 50 | 1013.2 |
| 20260506160006 | 59 | 47 | 7.0 | 11.0 | 0.00 | 0.00 | 0.00 | 50 | 1013.2 |
| 20260506155406 | 59 | 46 | 8.0 | 10.0 | 0.00 | 0.00 | 0.00 | 51 | 1013.2 |
| 20260506154527 | 58 | 54 | 5.0 | 10.0 | 0.00 | 0.00 | 0.00 | 51 | 1013.2 |
| 20260506153627 | 58 | 41 | 6.0 | 9.0 | 0.00 | 0.00 | 0.00 | 51 | 1013.3 |
| 20260506152706 | 58 | 39 | 6.0 | 9.0 | 0.00 | 0.00 | 0.00 | 51 | 1013.4 |
| 20260506151806 | 58 | 68 | 6.0 | 8.0 | 0.00 | 0.00 | 0.00 | 51 | 1013.3 |
| 20260506150906 | 58 | 49 | 7.0 | 10.0 | 0.00 | 0.00 | 0.00 | 52 | 1013.2 |
| 20260506150006 | 58 | 43 | 6.0 | 8.0 | 0.00 | 0.00 | 0.00 | 52 | 1013.3 |
| 20260506145427 | 58 | 52 | 6.0 | 8.0 | 0.00 | 0.00 | 0.00 | 51 | 1013.4 |
| 20260506144506 | 58 | 27 | 8.0 | 11.0 | 0.00 | 0.00 | 0.00 | 51 | 1013.4 |
| 20260506143606 | 58 | 42 | 8.0 | 11.0 | 0.00 | 0.00 | 0.00 | 51 | 1013.3 |
| 20260506142727 | 59 | 2 | 6.0 | 8.0 | 0.00 | 0.00 | 0.00 | 51 | 1013.3 |
| 20260506141806 | 59 | 42 | 8.0 | 10.0 | 0.00 | 0.00 | 0.00 | 46 | 1013.3 |
| 20260506140906 | 60 | 77 | 7.0 | 11.0 | 0.00 | 0.00 | 0.00 | 47 | 1013.3 |
| 20260506140006 | 60 | 75 | 8.0 | 12.0 | 0.00 | 0.00 | 0.00 | 50 | 1013.3 |
| 20260506135406 | 59 | 57 | 7.0 | 11.0 | 0.00 | 0.00 | 0.00 | 50 | 1013.3 |
| 20260506134506 | 59 | 26 | 8.0 | 11.0 | 0.00 | 0.00 | 0.00 | 50 | 1013.3 |
| 20260506133606 | 59 | 5 | 7.0 | 11.0 | 0.00 | 0.00 | 0.00 | 49 | 1013.4 |
| 20260506132706 | 59 | 16 | 8.0 | 10.0 | 0.00 | 0.00 | 0.00 | 50 | 1013.2 |
| 20260506131806 | 59 | 64 | 7.0 | 11.0 | 0.00 | 0.00 | 0.00 | 48 | 1013.1 |
| 20260506130906 | 59 | 50 | 6.0 | 11.0 | 0.00 | 0.00 | 0.00 | 45 | 1013.1 |
| 20260506130006 | 59 | 23 | 10.0 | 14.0 | 0.00 | 0.00 | 0.00 | 45 | 1013.2 |
| 20260506125406 | 59 | 45 | 9.0 | 14.0 | 0.00 | 0.00 | 0.00 | 45 | 1013.3 |
| 20260506124527 | 59 | 48 | 7.0 | 10.0 | 0.00 | 0.00 | 0.00 | 43 | 1013.3 |
| 20260506123606 | 59 | 335 | 7.0 | 15.0 | 0.00 | 0.00 | 0.00 | 43 | 1013.2 |
| 20260506122706 | 59 | 48 | 6.0 | 10.0 | 0.00 | 0.00 | 0.00 | 50 | 1013.2 |
| 20260506121806 | 57 | 30 | 8.0 | 11.0 | 0.00 | 0.00 | 0.00 | 45 | 1013.2 |
| 20260506120906 | 58 | 28 | 8.0 | 11.0 | 0.00 | 0.00 | 0.00 | 46 | 1013.3 |
| 20260506120006 | 59 | 50 | 8.0 | 11.0 | 0.00 | 0.00 | 0.00 | 43 | 1013.4 |
| 20260506115427 | 59 | 48 | 6.0 | 9.0 | 0.00 | 0.00 | 0.00 | 41 | 1013.3 |
| 20260506114527 | 59 | 26 | 8.0 | 11.0 | 0.00 | 0.00 | 0.00 | 42 | 1013.3 |
| 20260506113606 | 58 | 57 | 7.0 | 11.0 | 0.00 | 0.00 | 0.00 | 48 | 1013.4 |
| 20260506112706 | 58 | 24 | 7.0 | 10.0 | 0.00 | 0.00 | 0.00 | 46 | 1013.4 |
| 20260506111806 | 58 | 36 | 6.0 | 10.0 | 0.00 | 0.00 | 0.00 | 45 | 1013.6 |
| 20260506110906 | 58 | 88 | 7.0 | 11.0 | 0.00 | 0.00 | 0.00 | 48 | 1013.4 |
| 20260506110006 | 58 | 45 | 9.0 | 12.0 | 0.00 | 0.00 | 0.00 | 46 | 1013.4 |
| 20260506105406 | 58 | 50 | 8.0 | 12.0 | 0.00 | 0.00 | 0.00 | 46 | 1013.5 |
| 20260506104506 | 57 | 20 | 8.0 | 10.0 | 0.00 | 0.00 | 0.00 | 52 | 1013.5 |
| 20260506103606 | 56 | 356 | 6.0 | 9.0 | 0.00 | 0.00 | 0.00 | 54 | 1013.4 |
| 20260506102706 | 56 | 208 | 5.0 | 8.0 | 0.00 | 0.00 | 0.00 | 55 | 1013.4 |
| 20260506101827 | 56 | 69 | 7.0 | 9.0 | 0.00 | 0.00 | 0.00 | 55 | 1013.4 |
| 20260506100927 | 56 | 1 | 5.0 | 8.0 | 0.00 | 0.00 | 0.00 | 58 | 1013.5 |
| 20260506100006 | 54 | 39 | 6.0 | 9.0 | 0.00 | 0.00 | 0.00 | 59 | 1013.6 |
| 20260506095406 | 53 | 22 | 6.0 | 9.0 | 0.00 | 0.00 | 0.00 | 60 | 1013.6 |
| 20260506094506 | 52 | 6 | 6.0 | 9.0 | 0.00 | 0.00 | 0.00 | 59 | 1013.7 |
| 20260506093606 | 52 | 264 | 7.0 | 8.0 | 0.00 | 0.00 | 0.00 | 59 | 1013.6 |
| 20260506092706 | 52 | 8 | 6.0 | 8.0 | 0.00 | 0.00 | 0.00 | 59 | 1013.5 |
| 20260506091806 | 52 | 18 | 6.0 | 8.0 | 0.00 | 0.00 | 0.00 | 60 | 1013.6 |
| 20260506090927 | 52 | 34 | 5.0 | 8.0 | 0.00 | 0.00 | 0.00 | 62 | 1013.5 |
| 20260506090006 | 53 | 11 | 7.0 | 9.0 | 0.00 | 0.00 | 0.00 | 60 | 1013.6 |
| 20260506085406 | 53 | 20 | 5.0 | 9.0 | 0.00 | 0.00 | 0.00 | 60 | 1013.6 |
| 20260506084506 | 53 | 40 | 6.0 | 11.0 | 0.00 | 0.00 | 0.00 | 61 | 1013.6 |
| 20260506083606 | 52 | 48 | 6.0 | 9.0 | 0.00 | 0.00 | 0.00 | 62 | 1013.6 |